Voltar ao catálogo

STARLINK-35414

AtivoComunicaçõesSSO
NORAD 65798·PAYLOAD·🇺🇸 United States

Lançado Sep 26, 2025 de Vandenberg Space Force Base

Loading…

Próximas Passagens (próximas 24 horas)

TLE

AtualizadoSource: CelesTrak SupGP

Época: Sep 14, 2026, 22:58 UTC

1 65798C 25218H   26257.95743056  .00049275  00000+0  15298-2 0  2574
2 65798  97.2842 115.4711 0001760  98.3530  73.8934 15.33409695    11

Acompanhe STARLINK-35414 em tempo real com AllMySat

Download on the App Store